CAPE
4 4 2 1 0 0 0 0 0 0 1 1 0 0 0 0 0 0 0 0 0 0 0 0 2 0 0 0 0 0 0 0 0 0 0 0 0 0 0 0 0 0 0 0 0 90 98
3 3 2 1 0 0 0 0 0 0 0 1 0 0 0 0 0 0 0 0 0 0 0 0 0 0 0 0 0 0 0 0 0 0 0 0 0 0 0 0 0 0 1 16 6 63 116
8 7 8 3 1 0 0 0 0 0 0 0 0 1 0 0 0 0 0 0 0 0 0 0 0 0 0 0 0 0 0 0 0 0 0 0 0 0 0 0 0 1 32 44 21 3 13
9 6 4 6 6 2 1 0 0 0 0 0 1 1 0 0 0 0 0 0 0 0 0 0 0 0 0 0 0 0 0 0 0 0 0 0 0 0 0 0 0 0 0 0 1 63 35
7 10 10 3 4 2 3 1 0 0 0 0 0 0 0 0 0 0 0 0 0 0 0 0 0 0 0 0 0 0 0 0 0 0 0 0 0 0 0 0 0 0 0 0 9 72 12
15 10 10 7 0 2 1 3 1 0 0 0 0 0 1 0 0 0 0 0 0 0 0 0 0 0 0 0 0 0 0 0 0 0 0 0 0 0 0 4 1 0 0 0 1 10 65
30 26 11 10 14 4 3 4 2 0 0 0 0 0 0 0 0 0 0 0 0 0 0 0 0 0 0 0 0 0 0 0 0 0 0 0 0 0 2 0 0 0 0 0 0 0 2
10 21 31 17 7 16 9 10 9 4 0 0 0 0 0 0 0 0 0 0 0 0 0 0 0 0 0 0 0 0 0 0 0 0 0 0 0 0 0 0 0 0 0 0 0 0 0
8 3 25 30 27 13 8 6 11 8 1 0 0 0 0 0 0 0 0 0 0 0 0 0 0 0 0 0 0 0 0 0 0 0 0 0 0 0 0 0 0 0 0 0 0 0 0
18 16 3 25 30 25 20 8 5 8 6 0 0 0 1 0 0 0 0 0 0 0 0 0 0 0 0 0 0 0 0 0 0 0 0 0 0 0 0 0 0 0 0 0 0 0 0
2 22 8 4 25 19 18 16 13 8 10 1 0 0 1 0 0 0 0 0 0 0 0 0 0 0 0 0 0 0 0 0 0 0 0 0 0 0 0 0 0 0 0 0 0 0 0
0 0 15 5 2 20 11 22 16 6 10 6 0 0 0 1 0 0 0 0 0 0 0 0 0 0 0 0 0 0 0 0 0 0 0 0 0 0 0 0 0 0 0 0 0 0 0
0 0 0 5 14 16 16 15 19 13 5 10 1 0 0 0 0 0 0 6 0 0 0 0 0 0 0 0 0 0 0 0 0 0 0 0 0 0 0 0 0 0 0 0 0 0 0
5 0 0 0 16 2 26 8 15 13 8 1 6 1 1 0 0 0 35 62 0 0 0 0 0 0 0 0 0 0 0 0 0 0 0 0 0 0 0 0 0 0 0 0 0 0 0
22 2 0 2 1 13 24 21 8 19 21 18 13 1 13 1 0 0 21 15 0 0 0 0 0 0 0 0 0 0 0 0 0 0 0 0 0 0 0 1 1 0 0 0 0 0 0
32 10 0 0 2 11 54 46 6 7 12 6 14 2 17 11 0 0 1 3 0 0 0 0 0 0 0 0 0 0 0 0 0 0 0 0 0 0 0 0 0 12 0 2 0 2 0
37 24 1 0 1 12 33 43 8 2 16 12 14 16 14 21 2 0 0 5 5 0 0 0 0 0 0 0 0 0 0 0 0 0 0 0 0 0 0 0 0 0 0 0 0 0 0
37 31 2 0 0 10 54 27 11 4 29 16 19 9 37 21 27 1 0 0 0 0 0 0 0 0 0 0 0 0 0 0 0 0 0 0 0 0 0 0 0 0 0 0 0 0 0
26 32 3 0 1 38 63 32 11 10 18 8 7 42 64 15 8 1 0 0 0 0 0 0 0 0 0 0 0 0 0 0 0 0 0 0 0 0 0 0 0 0 1 0 0 0 0
66 35 5 0 1 20 44 17 11 8 23 6 25 26 57 59 0 3 0 0 0 0 0 0 0 0 0 0 0 0 0 0 1 0 0 0 0 0 0 0 1 27 46 2 0 0 0
65 28 5 1 7 19 16 8 9 4 18 8 15 26 5 10 1 7 0 0 0 0 0 0 0 0 0 0 0 0 0 0 0 0 0 0 0 0 0 0 0 0 1 1 0 0 0
22 26 5 1 3 16 31 20 13 10 12 17 15 40 56 6 5 3 2 1 0 0 0 0 0 0 0 0 0 0 0 0 2 0 3 0 0 0 0 0 0 0 0 0 0 0 0
49 12 4 2 5 25 19 12 4 12 53 17 10 0 47 1 1 4 0 0 0 0 0 0 0 0 0 0 0 0 0 0 6 0 2 3 0 0 0 0 0 0 0 0 0 0 0
58 5 4 3 12 32 14 0 3 16 8 23 7 2 28 8 3 0 0 3 0 0 0 0 0 0 0 0 0 1 0 4 1 0 0 0 0 0 0 0 0 0 0 0 0 0 0
10 3 7 10 20 9 6 4 2 1 11 0 7 5 5 22 0 5 0 0 1 0 0 0 0 0 0 3 17 47 26 14 3 0 0 0 0 0 0 0 0 0 0 0 0 0 0
6 10 10 14 25 11 1 0 4 19 0 0 2 2 6 2 0 17 1 0 0 0 0 0 0 7 0 0 3 37 31 5 0 0 0 0 0 0 0 0 0 0 0 0 0 0 0
9 14 11 12 15 9 3 2 4 4 3 5 2 1 13 4 5 36 19 0 0 0 0 0 8 3 0 0 6 13 10 0 0 0 0 0 0 0 0 0 0 0 0 0 0 0 0
11 8 9 20 26 13 17 12 17 10 17 13 0 15 2 1 0 3 28 14 0 0 0 0 23 10 0 17 7 2 0 0 0 0 0 0 0 0 0 0 0 0 0 0 0 0 0
7 15 18 6 1 2 1 21 25 24 9 10 4 40 10 4 0 0 0 0 0 0 0 0 0 13 29 11 0 0 0 0 0 0 0 0 0 0 0 0 0 0 0 0 0 0 0
CIN
-0 -0 -0 -0 -0 -0 -0 -0 -0 -0 -0 -8 -0 -0 -0 -0 -0 -0 -0 -0 -0 -0 -0 -0 -0 -0 -0 -0 -0 -0 -0 -0 -0 -0 -0 -0 -0 -0 -0 -0 -0 -0 -0 -0 -0 -121 -92
-0 -0 -1 -1 -0 -0 -0 -0 -0 -0 -0 -0 -0 -9 -0 -0 -0 -0 -0 -0 -0 -0 -0 -0 -0 -0 -0 -0 -0 -0 -0 -0 -0 -0 -0 -0 -0 -0 -0 -0 -0 -0 -10 -142 -110 -70 -84
-0 -0 -0 -1 -2 -0 -0 -0 -0 -0 -0 -0 -1 -14 -0 -0 -0 -0 -0 -0 -0 -0 -0 -0 -0 -0 -0 -0 -0 -0 -0 -0 -0 -0 -0 -0 -0 -0 -0 -0 -0 -108 -71 -102 -81 -134 -60
-0 -1 -1 -1 -1 -2 -1 -0 -0 -0 -0 -0 -12 -13 -10 -0 -0 -0 -0 -0 -0 -0 -0 -0 -0 -0 -0 -0 -0 -0 -0 -0 -0 -0 -0 -0 -0 -0 -0 -0 -0 -0 -0 -0 -60 -71 -76
-0 -0 -0 -1 -1 -2 -1 -1 -0 -0 -0 -0 -0 -0 -3 -0 -0 -0 -0 -0 -0 -0 -0 -0 -0 -0 -0 -0 -0 -0 -0 -0 -0 -0 -0 -0 -0 -0 -0 -0 -29 -0 -0 -0 -24 -50 -46
-0 -0 -0 -0 -0 -1 -2 -3 -4 -0 -0 -0 -0 -0 -19 -0 -0 -0 -0 -0 -0 -0 -0 -0 -0 -0 -0 -0 -0 -0 -0 -0 -0 -0 -0 -0 -0 -0 -0 -64 -24 -0 -0 -0 -1 -11 -80
-1 -0 -0 -1 -1 -0 -0 -2 -3 -2 -0 -0 -0 -0 -0 -0 -0 -0 -0 -0 -0 -0 -0 -0 -0 -0 -0 -0 -0 -0 -0 -0 -0 -0 -0 -0 -0 -0 -60 -0 -0 -0 -0 -0 -0 -0 -6
-1 -0 -0 -1 -1 -1 -0 -0 -1 -2 -0 -0 -0 -0 -0 -0 -0 -0 -0 -0 -0 -0 -0 -0 -0 -0 -0 -0 -0 -0 -0 -0 -0 -0 -0 -0 -0 -0 -0 -0 -0 -0 -0 -0 -0 -0 -0
-3 -10 -0 -1 -1 -2 -4 -0 -0 -1 -1 -0 -0 -0 -0 -0 -0 -0 -0 -0 -0 -0 -0 -0 -0 -0 -0 -0 -0 -0 -0 -0 -0 -0 -0 -0 -0 -0 -0 -0 -0 -0 -0 -0 -0 -0 -0
-4 -8 -1 -0 -2 -0 -1 -2 -2 -1 -1 -0 -0 -0 -2 -0 -0 -0 -0 -0 -0 -0 -0 -0 -0 -0 -0 -0 -0 -0 -0 -0 -0 -0 -0 -0 -0 -0 -0 -0 -0 -0 -0 -0 -0 -0 -0
-12 -1 -4 -14 -0 -4 -1 -2 -3 -3 -1 -3 -0 -0 -17 -0 -0 -0 -0 -0 -0 -0 -0 -0 -0 -0 -0 -0 -0 -0 -0 -0 -0 -0 -0 -0 -0 -0 -0 -0 -0 -0 -0 -0 -0 -0 -0
-0 -0 -3 -12 -22 -0 -8 -4 -5 -3 -2 -3 -0 -0 -4 -0 -0 -0 -0 -0 -0 -0 -0 -0 -0 -0 -0 -0 -0 -0 -0 -0 -0 -0 -0 -0 -0 -0 -0 -0 -0 -0 -0 -0 -0 -0 -0
-0 -0 -0 -3 -29 -0 -2 -7 -7 -6 -2 -5 -3 -3 -0 -0 -0 -0 -0 -125 -0 -0 -0 -0 -0 -0 -0 -0 -0 -0 -0 -0 -0 -0 -0 -0 -0 -0 -0 -0 -0 -0 -0 -0 -0 -0 -0
-0 -0 -0 -0 -16 -24 -0 -7 -6 -6 -6 -6 -6 -13 -0 -2 -0 -0 -96 -24 -0 -0 -0 -0 -0 -0 -0 -0 -0 -0 -0 -0 -0 -0 -0 -0 -0 -0 -0 -0 -0 -0 -0 -0 -0 -0 -0
-0 -3 -0 -0 -0 -19 -2 -0 -17 -6 -3 -2 -5 -4 -1 -1 -0 -0 -38 -0 -0 -0 -0 -0 -0 -0 -0 -0 -0 -0 -0 -0 -0 -0 -0 -0 -0 -0 -0 -27 -67 -0 -0 -0 -0 -0 -0
-0 -0 -0 -0 -0 -15 -3 -0 -13 -13 -9 -6 -0 -4 -0 -12 -0 -0 -0 -0 -0 -0 -0 -0 -0 -0 -0 -0 -0 -0 -0 -0 -0 -0 -0 -0 -0 -0 -0 -0 -0 -71 -0 -34 -0 -4 -0
-0 -0 -0 -0 -0 -10 -8 -1 -22 -3 -17 -8 -0 -0 -7 -14 -33 -0 -0 -0 -2 -0 -0 -0 -0 -0 -0 -0 -0 -0 -0 -0 -0 -0 -0 -0 -0 -0 -0 -0 -0 -0 -0 -0 -0 -0 -0
-0 -0 -0 -1 -0 -5 -0 -2 -15 -9 -13 -4 -0 -0 -17 -7 -1 -3 -0 -0 -0 -0 -0 -0 -0 -0 -0 -0 -0 -0 -0 -0 -0 -0 -0 -0 -0 -0 -0 -0 -0 -0 -0 -0 -0 -0 -0
-0 -0 -1 -3 -0 -1 -2 -1 -0 -12 -4 -3 -0 -0 -11 -2 -0 -1 -0 -0 -0 -0 -0 -0 -0 -0 -0 -0 -0 -0 -0 -0 -0 -0 -0 -0 -0 -0 -0 -0 -0 -0 -8 -0 -0 -0 -0
-0 -0 -1 -0 -2 -0 -3 -1 -0 -17 -16 -2 -0 -0 -0 -0 -0 -2 -0 -0 -0 -0 -0 -0 -0 -0 -0 -0 -0 -0 -0 -0 -32 -0 -0 -0 -0 -0 -0 -0 -22 -26 -29 -42 -0 -0 -0
-0 -0 -0 -2 -0 -0 -0 -1 -2 -3 -31 -2 -4 -2 -1 -0 -0 -1 -1 -0 -0 -0 -0 -0 -0 -0 -0 -0 -0 -0 -0 -0 -0 -0 -0 -0 -0 -0 -0 -0 -0 -0 -5 -12 -0 -0 -0
-2 -0 -0 -0 -0 -0 -0 -1 -2 -9 -26 -1 -0 -1 -2 -1 -1 -0 -2 -1 -0 -0 -0 -0 -0 -0 -0 -0 -0 -0 -0 -0 -51 -1 -88 -0 -0 -0 -0 -0 -0 -0 -0 -0 -0 -0 -0
-0 -0 -0 -0 -0 -0 -0 -2 -1 -23 -13 -0 -16 -0 -20 -2 -0 -0 -0 -0 -0 -0 -0 -0 -0 -0 -0 -0 -0 -0 -0 -0 -70 -5 -76 -70 -0 -0 -0 -0 -0 -0 -0 -0 -0 -0 -0
-0 -0 -0 -0 -0 -0 -1 -0 -1 -8 -2 -0 -4 -0 -1 -1 -2 -0 -0 -0 -0 -0 -0 -0 -0 -0 -0 -0 -0 -109 -0 -167 -82 -0 -0 -0 -0 -0 -0 -0 -0 -0 -0 -0 -0 -0 -0
-0 -0 -0 -0 -0 -0 -0 -0 -2 -46 -18 -0 -16 -0 -0 -1 -0 -0 -0 -0 -0 -0 -0 -0 -0 -0 -0 -122 -93 -63 -94 -99 -70 -0 -0 -0 -0 -0 -0 -0 -0 -0 -0 -0 -0 -0 -0
-0 -0 -0 -0 -0 -0 -0 -1 -19 -13 -0 -0 -0 -0 -0 -43 -0 -1 -1 -0 -0 -0 -0 -0 -0 -117 -0 -0 -74 -27 -13 -36 -0 -0 -0 -0 -0 -0 -0 -0 -0 -0 -0 -0 -0 -0 -0
-0 -0 -0 -0 -0 -0 -6 -17 -9 -1 -2 -1 -1 -0 -0 -0 -14 -2 -6 -0 -0 -0 -0 -0 -76 -130 -0 -4 -51 -23 -20 -0 -0 -0 -0 -0 -0 -0 -0 -0 -0 -0 -0 -0 -0 -0 -0
-0 -0 -0 -0 -0 -1 -1 -1 -7 -1 -7 -0 -0 -0 -0 -0 -0 -18 -25 -9 -0 -0 -0 -0 -40 -48 -0 -35 -22 -10 -0 -0 -0 -0 -0 -0 -0 -0 -0 -0 -0 -0 -0 -0 -0 -0 -0
-0 -0 -0 -0 -1 -0 -0 -0 -0 -1 -12 -0 -0 -0 -1 -0 -0 -0 -0 -0 -0 -0 -0 -0 -0 -57 -69 -63 -0 -0 -0 -0 -0 -0 -0 -0 -0 -0 -0 -0 -0 -0 -0 -0 -0 -0 -0
Wind_Speed
33 32 32 32 32 33 33 32 30 30 29 27 27 27 27 27 28 29 30 31 32 33 32 32 32 30 22 16 13 17 20 17 15 15 15 17 16 14 17 17 18 23 21 21 23 15 17
35 34 32 32 32 32 32 32 32 31 29 29 28 28 28 27 28 29 30 31 32 32 31 30 29 27 18 11 15 16 18 17 15 15 16 15 15 13 20 19 17 19 16 14 15 14 12
38 37 35 33 32 31 30 31 32 32 32 29 27 27 28 28 28 29 30 31 31 31 30 28 26 22 15 5 14 15 15 14 13 13 13 15 13 16 19 18 18 14 13 13 17 15 12
43 39 38 36 35 32 29 29 30 30 30 30 28 27 27 27 28 29 31 32 32 31 28 25 22 19 8 11 12 9 11 11 13 13 11 19 18 19 19 19 15 11 15 16 14 9 11
45 43 41 39 37 35 33 31 30 29 29 28 28 27 26 27 28 29 32 33 34 31 24 21 19 17 8 13 8 7 10 12 13 11 11 22 18 19 19 17 16 14 19 18 17 7 12
48 47 44 42 39 38 36 34 33 32 31 29 27 25 26 26 27 29 32 34 28 24 20 18 18 18 9 10 11 10 10 12 11 12 10 14 16 18 15 15 16 17 16 17 17 16 23
46 46 46 45 43 39 39 37 33 31 31 30 30 26 24 23 25 27 28 25 25 22 20 17 16 13 12 15 11 9 9 12 11 14 15 14 14 16 17 20 18 20 18 19 22 23 22
52 49 47 45 44 42 40 38 35 32 31 29 28 25 23 22 22 24 24 23 21 22 28 29 34 14 8 11 8 8 10 11 12 14 13 13 14 20 19 17 16 16 19 22 23 22 8
56 53 50 48 45 42 41 40 38 33 30 30 27 24 22 19 19 22 22 21 23 26 27 29 20 13 2 3 5 8 11 9 12 13 12 11 16 17 19 21 20 21 23 22 19 14 14
58 57 53 52 47 46 43 41 40 36 32 30 26 26 20 16 20 19 19 21 26 16 25 21 17 17 1 3 3 10 8 8 9 12 10 15 21 20 21 26 21 22 19 23 21 13 14
55 57 57 55 54 48 47 44 40 37 36 31 29 24 18 12 20 19 14 21 9 17 25 15 13 13 2 5 8 5 5 4 9 7 8 11 19 23 23 24 19 22 19 17 16 12 11
53 54 57 57 56 53 48 46 43 40 37 31 29 27 18 19 22 19 23 21 16 19 21 17 9 4 3 5 3 5 6 4 5 2 18 21 17 18 22 22 20 21 17 16 16 17 19
50 52 53 55 58 54 49 46 44 41 40 36 30 30 21 19 22 18 19 16 19 24 20 16 10 4 5 4 14 3 5 9 6 6 8 17 21 18 18 21 18 17 17 20 19 21 20
42 46 51 52 55 56 52 47 45 43 41 39 34 32 28 26 21 19 16 20 27 20 21 19 13 5 4 3 9 9 4 8 2 1 4 4 10 13 14 16 18 18 15 17 22 21 24
42 38 45 49 53 56 55 50 44 42 40 36 33 35 33 31 24 20 22 30 29 22 20 21 14 8 5 5 3 10 8 11 8 4 3 4 16 15 15 18 18 16 20 17 18 21 24
45 42 37 45 49 54 55 50 44 41 41 37 34 37 39 28 26 23 33 36 31 25 21 21 16 10 7 4 6 3 10 5 10 6 11 8 12 17 19 19 20 20 12 23 18 22 24
45 44 40 35 45 50 49 50 45 41 41 38 35 39 33 26 25 30 40 37 36 36 27 21 21 15 11 6 6 4 4 5 6 6 10 9 13 20 19 21 29 24 23 21 14 13 21
46 44 42 37 32 44 44 46 45 41 39 39 39 44 31 30 35 39 45 35 33 42 32 27 23 23 20 12 7 9 12 7 3 5 7 10 11 24 33 23 21 15 16 12 11 16 18
48 46 43 39 34 32 39 43 44 41 39 40 43 39 30 36 44 45 43 45 38 33 35 26 26 24 19 19 10 10 8 7 3 5 5 9 17 21 27 23 15 20 20 17 13 20 17
51 48 45 40 36 34 40 46 44 43 42 42 39 42 35 40 51 48 45 43 45 44 41 31 28 27 24 22 16 8 9 9 4 6 8 7 18 21 19 25 19 22 24 13 9 15 29
61 50 46 42 37 36 35 46 53 49 45 45 43 48 40 47 52 48 46 45 43 42 42 37 36 31 22 22 16 11 15 11 9 7 9 11 20 21 26 21 18 21 19 15 14 24 25
55 51 46 42 38 35 35 36 50 54 48 53 46 45 42 40 46 48 46 55 44 42 33 39 39 29 33 28 26 15 14 11 7 12 11 17 16 18 22 18 20 23 23 24 24 29 31
57 47 45 42 37 34 35 35 40 50 51 49 51 37 41 48 44 47 54 53 49 37 46 35 34 34 32 29 28 31 20 11 9 10 13 14 13 15 21 23 26 30 26 29 32 25 24
61 45 43 40 36 35 34 33 34 41 54 41 50 39 42 47 44 50 48 54 49 41 39 38 44 31 33 21 18 17 15 13 11 15 15 11 15 20 25 23 24 28 25 26 26 26 21
43 42 39 37 35 35 35 35 33 36 48 52 41 46 36 46 50 44 48 48 49 47 45 48 36 38 23 19 21 21 22 18 17 19 18 19 15 20 23 23 30 24 18 17 15 17 13
40 39 35 36 34 34 35 32 29 28 36 51 52 40 40 34 49 45 41 41 48 48 45 46 45 27 23 28 26 26 18 18 18 21 18 17 18 18 19 26 25 25 19 15 13 15 8
35 34 33 33 33 32 31 33 28 29 33 43 48 45 44 37 34 42 42 40 43 44 46 40 34 33 27 32 32 26 27 21 18 17 20 18 20 18 20 24 26 18 15 11 13 17 5
29 28 29 30 30 29 30 30 28 29 32 41 50 37 38 37 35 31 37 41 43 45 42 34 32 36 33 34 33 27 24 24 21 20 22 19 18 20 21 24 29 13 10 13 15 9 2
23 24 25 27 28 29 30 28 27 26 29 43 47 35 36 37 38 35 38 45 46 43 42 36 39 31 29 29 27 24 25 22 22 24 21 22 19 17 11 14 16 10 13 11 2 1 2
Wind_Direction
288 288 287 288 288 287 286 288 290 291 291 294 299 303 308 313 316 317 318 320 321 322 328 331 334 342 4 22 38 34 30 64 69 78 84 79 65 32 255 249 267 246 270 249 251 292 302
286 286 287 287 287 288 289 288 288 290 291 290 294 298 304 309 312 313 314 316 317 318 325 329 335 343 10 35 38 41 56 79 65 88 95 89 68 111 223 243 274 275 255 269 272 278 318
282 282 284 284 286 286 288 289 289 287 289 291 293 296 299 304 308 310 310 312 313 313 321 327 337 350 10 76 36 35 68 72 75 83 77 146 47 259 239 256 288 275 262 279 251 262 298
278 279 280 281 281 284 285 287 290 291 290 291 292 293 297 301 304 306 306 306 308 308 316 326 338 352 32 35 31 65 83 97 90 105 114 270 296 231 217 243 268 282 268 253 273 337 312
275 275 275 277 279 279 281 283 285 289 292 292 293 294 294 297 300 303 303 301 300 302 314 324 333 352 39 12 65 79 114 98 82 79 132 268 310 268 241 255 253 262 243 244 260 25 296
272 271 272 273 274 275 277 280 282 283 285 289 294 295 293 293 295 299 299 297 304 305 315 322 325 334 14 48 34 47 85 118 82 55 89 328 296 252 266 265 261 250 255 265 251 252 229
270 270 269 269 270 271 273 275 278 281 283 285 287 293 296 296 294 295 302 304 301 302 302 307 324 328 353 349 23 74 62 95 96 63 74 330 268 248 249 230 239 233 254 254 250 239 192
272 267 266 266 267 268 269 271 273 276 281 284 286 288 291 293 296 296 297 297 299 300 294 281 261 217 193 341 33 64 78 89 92 114 51 297 260 219 231 234 252 254 251 250 249 263 138
268 268 263 263 263 264 265 267 270 271 274 279 282 283 287 292 301 295 292 294 300 286 292 292 293 294 178 90 95 123 116 93 105 104 102 325 244 237 238 238 245 245 247 246 266 302 286
266 263 263 261 258 259 260 262 263 267 269 273 276 277 281 286 294 293 290 298 286 282 292 299 296 291 219 30 36 147 119 100 81 126 83 292 245 243 240 215 243 246 265 238 262 313 300
265 262 259 259 256 255 256 257 258 260 263 266 267 270 270 263 287 286 294 301 314 288 285 301 290 305 194 145 22 144 128 59 138 103 4 311 268 246 247 233 271 245 283 283 298 330 340
264 262 259 256 256 252 251 252 253 255 258 260 261 261 260 264 275 282 279 288 280 272 278 292 286 289 191 187 7 11 129 329 313 33 281 274 282 268 248 253 267 257 294 295 299 300 297
263 261 259 255 251 252 248 247 248 250 251 254 256 254 250 258 265 280 272 269 263 258 280 279 277 270 185 211 168 82 129 147 149 134 140 287 274 275 273 267 281 303 303 291 293 291 292
257 259 258 254 249 248 246 243 243 247 247 247 250 251 250 252 258 269 260 251 254 265 259 279 275 261 208 242 180 163 158 159 218 244 55 89 308 273 273 281 286 292 317 309 295 298 291
249 248 255 254 250 244 243 240 239 240 243 241 244 246 247 243 246 256 245 241 252 254 263 266 271 251 235 243 281 173 184 179 173 209 164 10 285 280 278 277 281 294 296 321 315 307 296
249 243 242 252 250 244 238 235 235 235 237 235 238 241 242 237 235 244 242 243 250 246 262 264 259 255 214 229 195 185 180 227 189 246 269 278 293 279 275 284 284 292 321 286 309 302 295
244 241 238 240 249 244 229 228 228 230 229 228 233 238 236 224 227 237 237 241 241 240 252 264 265 265 243 234 211 209 204 219 186 258 262 270 279 276 277 275 270 300 287 289 320 325 301
242 236 233 235 233 238 228 223 224 225 220 220 229 232 226 210 225 236 237 240 242 238 246 255 266 265 266 255 241 188 180 199 162 207 226 262 279 269 260 288 303 311 300 303 308 308 308
240 230 224 226 221 217 224 220 215 216 213 215 225 230 224 214 226 233 237 236 240 241 242 248 255 260 270 269 242 196 204 273 210 182 204 257 273 268 273 287 300 292 293 306 312 303 301
238 226 219 218 214 205 219 216 214 216 216 216 224 222 225 222 229 233 231 237 235 237 241 243 251 257 263 270 271 233 263 284 285 268 264 247 269 268 270 283 284 289 283 304 305 305 285
234 222 212 212 208 201 205 218 218 218 216 214 224 224 223 219 223 229 229 234 233 236 237 239 245 246 254 265 275 274 268 281 294 272 269 272 268 274 274 284 288 287 293 300 297 291 293
224 216 207 208 207 203 196 203 217 216 214 216 220 223 222 235 227 224 230 230 231 230 236 237 239 243 249 259 262 270 272 275 265 267 265 271 276 275 276 289 294 291 287 287 289 286 285
221 207 204 204 202 198 198 191 212 213 209 216 221 230 224 226 221 224 209 229 230 229 236 242 235 240 247 253 262 265 274 262 263 247 256 264 269 280 282 289 292 286 285 283 283 290 294
209 198 196 199 197 193 194 192 196 210 210 220 214 222 223 225 222 224 228 228 230 229 234 239 233 241 246 266 274 276 283 280 272 260 260 261 271 282 285 294 261 290 296 294 292 292 287
192 190 189 190 189 186 188 181 185 209 214 217 218 218 227 229 225 229 228 229 230 233 236 236 238 242 246 254 259 257 260 264 267 266 266 271 275 287 288 289 293 297 304 305 301 302 305
184 180 182 186 184 181 190 195 198 194 203 216 220 225 228 233 227 226 226 229 227 229 234 236 236 247 242 246 252 249 246 257 255 259 272 276 284 286 295 291 291 298 300 299 306 296 305
173 173 178 186 192 191 197 208 204 195 187 213 217 223 222 231 230 221 226 227 227 229 234 234 232 234 241 240 243 252 252 255 248 247 264 271 281 283 290 290 295 303 308 311 276 299 272
167 171 185 192 194 196 203 207 205 194 199 212 214 222 220 227 232 230 228 228 226 228 226 229 228 235 234 236 239 248 257 253 259 260 265 267 277 287 294 291 290 305 298 286 299 307 288
167 175 181 190 196 202 207 206 198 195 201 210 211 220 221 231 232 241 242 237 231 233 227 228 231 233 234 237 246 250 257 259 257 259 267 271 282 288 290 306 312 320 304 299 340 0 325